Wind_Speed
29 28 33 38 39 40 42 42 40 34 29 29 30 30 33 35 32 34 33 29 31 33 36 38 34 31 33 35 29 25 29 33 32 31 30 30 32 30 31 32 29 27 28 32 36 36 37 37 32 27 26 26 28 27 23 24 25 24 25 24 20 19 20 19 18 19 20 20 19 19 19 19 19 19 20 20 20 21 20 19 21 21 20 20 20 20
31 34 37 38 36 35 36 37 35 34 31 28 30 30 33 37 33 30 34 31 30 31 32 34 35 33 31 33 33 28 28 31 32 31 30 31 32 31 32 33 30 30 30 32 35 38 38 35 30 27 26 27 28 27 25 25 26 26 25 23 20 19 20 18 17 18 20 19 17 17 18 19 19 20 21 22 23 22 21 21 21 20 19 19 18 18
32 38 37 35 33 31 32 34 33 35 35 28 26 29 31 36 34 29 32 32 30 30 29 31 35 35 31 32 34 33 30 30 30 30 30 31 32 32 35 34 32 33 34 34 36 38 36 32 30 28 27 28 29 28 27 27 27 27 25 23 20 19 19 17 16 18 20 20 18 17 18 20 21 21 23 25 24 21 19 19 18 17 17 17 17 16
33 37 35 32 32 32 33 35 34 35 37 33 28 29 29 33 35 30 30 31 30 30 27 26 31 33 31 31 34 35 31 28 28 29 29 30 32 33 36 36 35 35 34 36 39 37 34 32 31 30 29 30 30 30 29 28 28 28 26 23 20 19 18 16 16 18 21 21 20 20 19 20 22 23 24 23 21 19 18 17 16 16 16 15 14 13
32 31 31 31 32 35 36 35 37 36 36 37 34 30 27 32 37 30 28 30 27 27 27 25 26 30 32 32 34 35 32 29 28 28 29 31 31 32 36 37 36 36 35 38 41 38 35 34 31 31 31 31 31 31 30 30 29 27 26 23 20 18 17 16 17 19 22 23 22 21 20 21 24 25 25 22 20 19 18 16 16 16 16 14 12 11
33 28 27 31 34 36 37 36 39 37 35 37 35 31 27 29 35 31 27 30 27 25 29 28 21 22 31 34 33 35 35 33 30 29 31 31 31 32 35 36 36 38 38 38 40 39 36 35 33 32 32 32 32 31 31 31 30 28 26 22 18 16 16 17 18 19 21 22 22 21 21 22 24 25 24 21 20 19 17 16 16 16 15 14 12 12
32 29 27 31 34 35 37 37 38 38 36 35 33 31 28 26 31 33 29 30 28 24 27 30 22 15 24 34 35 34 35 35 32 31 33 32 32 33 34 36 37 39 38 38 39 40 38 36 34 34 33 32 32 31 31 32 32 30 26 21 19 18 17 17 17 18 18 20 21 21 22 23 25 25 22 19 18 17 16 16 16 16 16 15 14 13
30 29 27 31 35 35 37 37 38 40 38 33 30 30 27 26 29 32 31 29 26 21 21 30 29 19 19 30 35 35 35 36 35 33 34 35 34 34 35 39 41 40 37 38 41 42 39 37 35 33 33 32 32 30 31 33 34 29 22 22 22 18 16 17 17 17 18 19 21 20 22 24 25 24 20 16 15 15 16 16 16 17 17 16 15 14
28 29 28 31 35 35 37 36 35 41 40 31 28 28 24 22 26 30 30 26 24 21 20 29 32 21 17 24 31 36 38 37 37 36 34 35 35 35 38 41 43 41 36 35 41 43 40 37 35 33 33 32 31 31 31 32 31 24 19 20 17 12 14 17 18 19 19 20 20 20 22 24 24 23 19 15 14 15 16 16 17 17 17 16 16 16
25 27 25 29 35 33 33 33 32 39 40 30 26 29 23 17 22 29 27 24 23 20 20 27 32 22 15 21 29 36 41 39 37 36 33 34 35 36 40 40 41 43 40 36 39 42 39 37 35 33 33 33 31 31 31 29 28 24 22 21 15 12 13 16 18 19 19 21 20 20 23 23 22 21 20 18 17 16 16 16 16 15 15 16 17 18
20 23 23 26 31 29 28 30 31 36 39 30 24 29 26 16 20 26 25 23 19 16 21 27 33 26 15 20 29 33 38 38 35 35 34 34 35 37 41 40 40 42 41 38 38 40 39 37 35 33 33 33 32 32 31 28 28 26 23 19 14 13 14 15 18 19 20 21 21 23 25 22 19 19 19 19 18 17 16 16 15 16 16 18 19 19
16 21 24 25 27 26 26 29 29 32 39 34 25 29 29 21 19 20 22 22 14 13 24 28 30 29 20 19 25 29 33 35 35 36 36 36 36 37 41 41 41 42 40 38 36 39 40 37 35 35 34 34 32 32 31 29 28 25 21 16 12 14 15 16 19 19 20 22 24 27 25 20 18 19 19 19 19 19 18 16 17 18 19 19 19 18
16 20 24 25 26 26 26 30 29 32 40 36 27 30 28 19 16 14 14 16 13 13 24 28 27 26 25 24 22 23 29 32 34 36 36 38 37 37 40 41 41 40 39 38 34 36 41 38 35 35 34 34 33 32 31 31 28 24 20 15 12 14 14 15 18 19 20 24 26 24 20 18 19 18 18 19 20 20 20 18 18 18 19 19 18 19
16 18 23 26 27 26 27 31 33 36 41 36 32 34 27 15 11 12 11 12 13 15 21 28 25 20 23 28 23 19 26 30 31 34 36 37 38 37 38 39 42 40 37 37 35 36 41 38 35 36 35 34 34 31 31 31 28 24 22 16 12 13 13 14 17 18 21 24 22 19 17 17 17 16 17 18 18 19 19 17 17 17 18 19 20 20
15 15 24 29 28 26 27 30 31 35 38 34 32 34 29 21 14 12 11 11 12 15 20 24 22 18 18 24 26 20 20 25 28 31 34 35 36 36 34 36 42 42 38 35 35 38 40 37 35 36 34 34 33 31 31 30 27 25 22 15 10 12 13 15 17 18 19 18 16 15 16 15 15 16 17 17 17 18 18 17 16 17 19 21 22 19
16 16 25 29 26 26 27 27 28 32 35 32 31 32 30 26 20 13 12 14 13 13 16 18 19 22 17 14 22 21 17 22 25 28 33 34 34 35 33 34 39 40 37 35 36 40 40 36 34 33 33 33 32 30 31 30 26 25 20 12 9 13 15 16 17 16 15 12 12 14 15 14 15 16 16 17 17 18 18 17 16 17 19 22 23 18
16 15 25 28 24 25 26 25 27 31 34 31 31 32 29 25 21 16 12 14 15 10 12 17 18 22 17 9 18 23 19 21 24 27 32 32 33 35 33 34 37 38 37 36 38 40 37 33 30 28 30 31 30 30 31 28 25 23 17 11 10 13 15 16 15 14 12 11 11 12 13 13 14 15 15 16 16 17 17 18 18 19 20 20 20 16
13 13 26 29 25 26 26 23 25 30 33 32 30 31 28 22 20 19 11 10 13 8 10 19 18 18 18 13 17 24 21 21 24 28 31 30 33 34 33 35 38 38 37 36 38 39 35 29 25 24 27 28 28 29 28 25 23 20 15 12 11 12 14 16 14 13 12 10 9 11 12 12 14 14 15 16 16 16 17 19 20 21 21 19 17 16
12 13 23 29 25 27 26 22 24 29 33 31 27 27 26 20 19 22 14 8 12 8 8 17 19 17 18 17 20 24 22 22 24 28 30 31 33 33 33 36 38 37 36 36 38 39 35 29 24 24 25 25 26 26 25 23 21 18 15 13 12 13 15 15 14 13 12 9 10 11 12 13 14 15 15 15 15 16 18 19 20 22 23 21 17 15
11 11 19 27 26 28 28 24 26 32 34 31 26 25 25 19 18 22 18 12 12 9 7 13 15 15 17 17 22 25 23 23 24 27 30 31 32 32 34 37 37 35 34 34 39 41 37 30 25 24 24 24 25 25 23 22 20 18 15 13 13 15 16 15 13 12 11 11 11 12 13 14 14 15 15 15 16 18 19 20 22 23 21 18 15 13
10 10 15 24 26 27 29 26 28 33 35 33 30 29 26 20 19 20 18 18 16 9 7 9 10 14 18 16 19 24 25 25 25 27 29 31 32 32 35 37 35 34 32 34 40 42 38 31 27 25 25 25 25 24 22 20 19 18 16 14 15 16 16 14 12 12 12 12 13 14 14 15 14 15 15 16 18 21 21 21 22 20 16 15 14 13
10 10 15 25 27 27 29 27 26 29 32 32 32 31 27 23 22 17 13 19 22 14 9 9 8 13 19 16 15 21 25 26 26 27 28 29 31 32 34 36 34 32 32 36 41 41 36 32 28 26 26 27 25 23 21 20 19 18 16 16 17 17 16 15 14 14 14 13 14 15 15 15 15 15 15 16 19 22 22 22 21 18 16 15 14 13
11 8 14 26 26 24 26 24 23 27 29 28 28 30 27 23 23 18 12 16 21 19 15 11 8 11 18 17 13 17 23 25 26 27 27 28 29 30 31 34 35 31 31 37 39 38 35 33 30 28 29 28 25 22 22 21 19 18 17 18 19 19 18 17 15 15 15 14 14 15 15 15 15 15 16 17 21 23 23 22 20 18 16 14 13 13
10 5 13 23 21 21 24 22 22 25 27 24 24 29 29 24 21 18 15 16 16 16 17 12 7 10 17 17 13 15 19 22 24 26 26 26 27 28 31 35 34 29 31 37 37 36 35 33 31 30 31 30 25 23 23 22 20 19 18 19 20 19 19 18 16 14 15 15 14 15 16 15 15 16 17 20 23 24 23 21 20 19 17 15 14 15
9 4 12 18 15 15 19 19 22 27 28 25 24 28 28 26 23 16 14 17 14 13 15 12 8 12 16 15 15 15 17 19 23 25 25 25 26 27 30 33 30 26 29 34 34 33 32 30 31 32 32 30 27 24 24 23 21 20 19 20 20 20 20 19 16 14 14 15 14 14 15 15 16 17 19 22 25 25 24 21 21 20 18 16 15 15
8 6 12 14 12 12 13 16 23 30 32 28 26 27 26 26 26 16 12 15 14 14 16 11 9 15 15 14 16 18 18 19 21 24 24 24 26 27 28 28 26 25 27 29 29 29 29 29 30 31 30 30 28 26 25 24 23 21 21 21 21 21 21 19 17 15 15 15 14 14 14 15 16 18 22 25 26 26 26 23 22 21 18 16 16 15
7 8 14 15 16 18 19 21 26 29 31 30 29 29 25 26 27 18 12 14 15 16 14 6 8 15 14 14 16 18 20 19 20 22 23 25 30 30 27 24 25 26 26 26 27 28 28 29 29 28 29 29 29 27 26 25 24 23 23 23 23 23 22 20 18 17 17 16 15 14 14 16 18 20 23 26 26 27 27 26 23 21 18 17 17 15
8 11 14 16 17 19 20 22 26 27 29 30 30 30 26 25 27 22 14 14 17 17 12 10 11 13 13 13 14 15 18 19 20 22 23 27 31 30 26 25 25 28 27 26 28 29 29 29 27 27 27 28 29 29 27 26 25 24 24 24 24 24 23 22 20 19 18 18 16 15 15 16 20 22 23 25 26 28 29 28 24 21 20 18 17 15
7 9 12 14 15 16 17 20 24 26 26 26 28 30 27 25 27 24 17 16 17 13 11 14 11 11 10 9 9 11 14 18 20 21 23 26 27 24 23 25 28 30 28 27 28 28 28 28 27 27 27 28 29 29 27 27 27 26 25 25 25 24 23 23 22 20 19 19 17 16 16 17 21 23 24 25 26 28 29 28 25 23 22 20 18 16
4 4 9 12 14 14 15 18 24 25 24 24 26 29 28 25 27 26 20 18 14 9 9 9 8 10 9 5 7 10 13 16 19 20 22 25 24 21 21 24 27 29 28 27 27 27 27 27 27 27 28 28 29 29 28 28 28 27 26 26 25 25 25 24 23 21 20 19 18 18 17 18 21 23 25 25 25 27 28 26 25 25 24 22 20 18
4 3 6 10 13 13 13 16 24 26 24 23 24 27 28 26 28 28 24 19 11 5 4 3 5 8 8 7 6 10 13 16 18 20 22 23 22 20 20 22 26 28 28 27 26 25 26 27 28 28 28 27 28 28 28 28 27 26 26 26 26 26 26 25 24 23 21 20 18 19 19 19 21 23 25 26 26 27 26 26 27 27 26 24 22 20
6 3 4 9 11 11 11 14 20 24 23 23 25 28 29 28 28 29 27 21 13 9 7 3 5 7 6 9 6 6 10 15 17 19 21 21 21 20 19 22 26 28 27 26 25 26 27 27 28 27 25 26 27 27 27 28 27 26 26 26 26 26 26 26 26 24 22 20 19 20 20 20 21 22 24 26 27 27 27 27 28 29 28 27 25 24
8 6 5 9 11 13 14 15 19 21 19 20 26 28 29 29 28 27 26 21 15 12 9 3 5 7 3 7 8 5 6 12 15 19 21 20 21 21 20 23 26 27 28 27 26 27 27 27 26 25 24 25 26 26 27 27 26 26 26 26 25 26 28 28 27 25 23 21 21 21 20 21 21 21 22 24 26 27 27 28 28 28 28 28 28 27
7 8 7 9 11 14 17 17 19 18 14 16 24 26 26 26 27 28 27 22 17 14 9 3 5 3 1 3 7 6 3 8 11 17 21 21 22 23 23 25 25 25 27 29 28 26 25 25 24 23 23 24 25 26 27 26 25 25 25 26 27 28 28 28 28 26 24 23 22 22 21 21 21 22 22 24 25 26 27 28 28 28 28 28 28 27
6 8 8 9 11 14 19 19 16 13 11 13 20 23 23 23 25 28 27 20 17 15 11 7 3 1 4 3 6 8 3 6 11 15 19 22 24 24 24 24 23 25 28 29 27 25 24 23 22 22 23 24 25 26 26 26 26 27 27 28 29 28 28 29 29 27 25 24 23 23 22 22 22 22 23 24 25 26 28 29 29 29 28 28 27 27
9 8 7 10 11 14 20 17 11 8 10 11 15 21 23 21 23 28 26 20 18 16 12 11 8 6 7 7 8 10 6 4 11 14 17 21 22 21 22 24 25 26 27 27 25 23 22 21 21 22 23 24 25 25 25 26 28 28 29 29 29 28 29 30 30 29 27 26 25 23 22 22 22 22 22 22 24 26 28 29 29 29 29 28 28 27
13 10 9 11 12 15 20 17 10 9 10 11 13 20 23 20 22 26 22 17 17 15 12 12 8 7 11 9 9 11 8 3 12 14 15 18 20 19 20 23 25 25 25 24 24 23 21 21 21 21 22 23 24 25 25 27 28 29 30 30 30 30 31 32 31 29 27 26 25 24 23 23 22 22 22 22 23 25 27 28 28 29 29 28 28 27
15 14 12 10 12 18 18 14 10 6 8 12 14 18 20 17 18 19 14 12 13 14 15 15 10 9 12 10 9 11 5 4 13 15 15 17 19 19 20 21 22 23 23 22 22 21 20 20 20 21 22 23 24 25 26 27 29 30 31 31 31 30 30 31 30 29 28 27 26 25 25 24 23 22 22 23 24 25 26 27 28 28 29 29 28 28
15 14 11 9 12 18 15 12 10 5 6 11 13 17 20 18 14 13 11 11 12 14 17 17 13 13 13 10 8 4 5 8 10 13 16 17 17 17 20 21 21 22 22 21 20 20 20 20 21 21 22 24 25 26 26 26 28 29 30 30 30 30 29 29 29 28 28 27 26 26 25 24 24 23 24 24 25 25 26 27 28 28 29 29 29 29
12 12 12 11 12 18 16 10 10 8 9 10 11 15 22 22 17 13 10 11 14 15 18 16 14 15 13 8 5 4 8 9 10 13 17 18 18 17 20 22 22 22 22 21 20 20 20 20 21 22 24 25 26 25 25 26 27 27 27 28 29 29 29 29 28 28 28 27 27 27 26 25 25 25 25 26 26 27 27 27 28 29 29 30 31 31
12 12 13 13 14 19 15 9 12 11 9 9 8 14 21 21 16 11 9 9 12 14 15 14 13 12 9 6 5 5 6 9 12 15 18 19 19 18 19 21 22 22 21 20 19 19 19 19 21 22 23 24 24 24 24 25 25 25 25 26 27 28 28 28 28 27 27 27 27 27 26 25 25 26 26 27 27 27 27 27 28 29 30 31 31 30
8 9 12 13 14 15 12 12 13 10 8 8 10 17 23 18 12 10 9 7 8 13 14 13 11 10 9 9 7 6 8 10 12 14 17 18 19 20 19 19 20 20 19 17 17 18 18 18 19 21 22 22 23 23 24 24 24 23 24 25 26 26 26 26 26 26 27 27 28 28 25 24 24 24 24 24 25 25 25 26 28 28 28 30 29 25
2 4 7 7 6 8 12 13 10 7 8 11 15 19 19 12 9 11 10 6 8 13 13 11 11 11 11 10 10 9 11 11 11 13 16 17 18 21 20 18 18 19 18 17 18 18 17 18 19 20 21 21 21 21 22 22 21 21 22 23 24 25 25 25 25 24 24 25 25 23 21 21 23 23 22 21 21 22 24 25 25 25 25 26 25 22
4 2 5 5 3 5 9 9 8 9 10 12 15 17 15 11 10 12 10 8 11 12 12 12 13 12 11 12 13 13 12 11 12 14 17 18 20 21 21 19 19 19 19 19 19 18 18 19 19 20 20 19 19 19 19 19 19 19 21 22 23 23 23 24 23 22 22 22 21 20 20 21 23 23 22 22 21 22 23 22 21 21 21 21 21 20
6 7 8 8 6 6 9 10 12 15 14 13 16 17 16 14 13 13 11 12 13 13 12 13 14 14 14 14 15 15 15 14 13 15 18 19 19 20 21 20 20 20 20 19 18 18 18 18 18 17 17 17 17 17 17 18 18 19 21 22 22 22 22 22 22 22 23 22 21 22 22 23 24 23 23 23 22 21 21 20 18 19 20 21 21 20
12 12 10 10 12 14 15 15 16 15 14 16 19 18 17 16 15 13 13 13 14 15 14 14 15 16 16 16 16 16 16 14 12 14 18 19 19 20 21 20 20 20 19 18 17 17 17 16 16 16 16 16 16 16 16 16 16 18 20 21 21 22 22 21 21 23 24 24 23 23 24 24 24 24 22 22 21 20 19 18 19 20 21 21 22 21
11 13 11 13 13 13 14 16 18 17 17 18 20 19 17 17 15 14 14 15 15 16 16 16 16 16 15 15 14 13 13 12 11 13 15 17 19 20 20 19 20 19 18 17 17 18 17 17 17 17 17 16 16 16 16 16 16 17 19 20 20 20 21 20 19 20 22 23 23 24 25 25 25 23 22 22 21 21 20 19 19 20 20 21 22 23
7 9 7 12 14 14 15 18 18 18 19 19 19 18 18 17 15 14 14 14 15 15 16 16 16 15 14 13 11 10 10 10 10 11 11 12 14 17 17 17 17 17 16 15 16 17 17 16 16 17 17 17 17 17 17 17 17 17 18 19 19 19 20 20 19 19 20 22 23 25 26 25 24 23 23 23 22 22 21 20 20 19 19 21 23 23
4 6 5 12 18 17 16 18 17 17 18 19 18 17 16 16 16 15 14 14 14 13 13 13 12 12 11 10 9 9 8 7 7 7 8 9 10 11 13 13 13 14 14 14 14 15 15 15 16 16 17 17 17 18 19 19 18 18 18 18 18 18 19 20 20 21 21 23 25 25 25 25 24 24 24 24 23 23 22 21 21 21 20 21 23 23
2 4 4 8 13 13 12 15 15 15 16 17 16 15 15 15 15 13 12 12 12 12 11 10 9 8 7 6 6 6 5 5 5 5 5 6 7 9 11 12 12 13 14 14 15 16 16 16 17 17 17 18 18 19 20 20 19 19 18 18 17 17 18 20 21 22 23 23 24 25 25 25 25 24 24 24 23 22 21 22 23 23 22 23 24 24
2 5 4 3 7 9 9 10 12 14 15 15 13 13 13 13 13 11 10 9 9 9 8 8 7 6 5 4 4 4 4 4 4 4 4 4 6 7 10 12 13 14 15 15 16 17 18 18 18 18 18 19 19 20 21 20 20 19 19 18 18 18 19 20 21 22 22 22 22 22 24 25 25 24 24 24 23 22 22 23 24 24 25 26 26 24
Wind_Direction
205 208 211 210 209 208 207 208 212 214 213 214 212 212 212 213 215 211 212 209 197 203 214 216 219 221 222 222 223 219 208 210 214 215 216 214 212 211 218 225 216 209 213 215 218 218 214 210 207 212 218 224 231 235 234 231 233 235 233 231 227 229 235 234 227 221 217 215 213 213 217 221 223 224 224 226 225 225 228 230 230 228 227 227 225 226
206 212 214 211 210 208 208 209 211 214 217 219 216 213 212 213 215 209 209 209 198 205 216 215 217 221 221 219 218 215 209 212 214 215 214 210 208 207 214 220 211 208 212 212 215 213 208 207 208 215 221 227 232 233 232 229 231 235 232 230 225 227 235 235 229 224 219 215 210 212 218 221 224 226 226 229 228 225 224 229 234 233 233 232 230 234
207 215 216 211 209 207 207 208 208 212 217 220 218 214 212 210 211 209 206 206 199 204 215 214 216 221 221 218 217 214 214 216 216 215 213 208 206 205 210 213 206 208 212 210 208 206 205 208 211 217 224 228 231 233 231 228 230 233 232 229 226 227 234 236 232 225 220 214 206 209 218 222 226 229 230 231 232 231 228 231 239 244 245 245 244 243
208 214 214 209 207 204 204 207 206 210 215 216 215 215 211 204 205 205 199 200 200 203 212 213 216 222 220 218 217 215 215 216 216 214 211 208 206 206 210 210 206 206 210 207 204 203 206 209 213 219 225 228 231 232 230 227 230 232 232 230 226 229 235 237 234 228 224 219 212 212 219 226 231 233 234 235 236 237 238 238 244 249 246 247 250 245
213 213 211 207 206 203 203 205 203 206 210 210 214 216 210 202 202 202 195 196 199 203 210 211 215 220 218 216 216 215 215 215 214 211 208 208 207 208 210 208 206 206 205 205 204 205 209 211 215 221 225 229 231 232 230 228 228 229 231 230 227 230 236 240 238 231 229 228 224 223 227 232 235 235 234 235 239 240 239 241 244 245 240 237 241 241
219 214 208 206 205 202 202 203 200 202 203 205 213 215 209 202 198 197 191 191 196 202 206 207 213 218 214 215 214 212 213 213 211 209 206 205 205 207 206 203 206 207 204 205 206 208 211 212 216 221 226 230 231 231 229 227 228 229 230 230 232 236 237 240 240 236 236 236 233 233 234 237 239 240 236 230 233 238 237 238 239 237 235 230 230 235
220 215 208 204 202 200 202 203 200 199 200 204 209 208 205 201 194 195 194 191 198 203 201 205 216 219 208 213 213 209 210 210 208 207 206 204 203 205 203 202 206 207 205 207 208 210 213 213 216 221 226 230 231 230 226 227 230 228 228 232 236 240 240 240 241 240 240 239 237 237 237 236 237 240 240 230 228 234 235 234 235 234 232 228 227 231
215 212 207 200 198 197 199 201 198 197 200 203 200 197 202 203 196 197 197 195 200 203 198 203 215 227 215 210 209 207 207 207 206 207 206 205 204 203 202 204 208 209 207 209 210 213 213 213 216 221 227 230 232 229 225 228 231 227 229 231 225 227 239 245 245 242 242 243 241 239 235 234 235 239 243 236 226 228 230 230 232 232 231 230 229 229
208 209 205 197 196 196 197 199 195 195 199 199 193 193 200 204 199 197 197 198 199 202 203 201 206 224 232 212 202 203 207 206 205 205 204 204 203 203 205 207 209 211 210 210 212 214 214 215 218 222 228 230 229 226 225 229 233 233 235 232 219 220 240 247 247 244 246 247 241 236 234 232 234 238 241 238 228 227 230 230 231 231 232 231 230 228
208 207 204 197 193 193 196 196 193 193 195 194 192 193 198 203 198 197 199 199 197 207 212 201 199 211 233 218 200 199 205 205 202 202 202 201 200 202 205 205 206 210 211 210 212 214 215 217 220 224 229 229 226 225 226 230 234 236 235 234 236 243 248 249 248 244 244 244 237 232 230 227 228 232 233 236 235 236 236 233 232 232 231 231 234 233
210 204 203 200 192 190 192 192 194 193 192 193 191 191 195 201 195 196 202 200 199 214 215 205 200 204 223 221 206 200 202 202 199 199 199 198 198 201 204 202 203 209 211 210 212 214 215 219 222 225 228 226 224 225 227 229 232 234 232 233 242 252 254 250 246 241 240 240 234 229 226 222 224 225 226 233 238 241 242 238 236 236 233 234 236 228
207 199 200 199 192 190 190 191 194 193 194 198 192 186 190 193 191 195 201 202 208 216 212 208 202 203 216 220 209 203 201 201 201 200 198 196 196 201 206 205 204 209 211 209 211 213 216 219 222 225 226 223 223 225 226 229 233 235 233 232 243 256 255 244 238 239 240 235 229 226 223 219 220 219 221 231 238 243 245 241 239 238 236 237 231 210
201 197 195 193 193 194 191 191 189 187 196 202 191 184 188 187 189 196 193 201 215 214 208 207 203 205 216 220 214 203 199 201 203 202 200 197 196 199 205 206 207 210 210 208 208 211 216 220 223 226 225 222 223 225 227 233 235 237 237 231 238 249 243 232 230 231 230 227 224 223 222 218 218 219 223 231 239 245 246 239 237 237 234 231 217 196
193 198 199 193 193 198 197 192 183 182 194 199 188 185 187 182 184 192 191 200 210 210 206 203 204 211 215 217 219 209 198 200 202 202 200 198 197 197 200 205 209 210 209 208 208 211 217 221 224 228 226 223 224 225 228 234 236 237 235 229 234 241 230 221 221 218 219 221 221 219 220 219 220 223 228 234 238 243 243 238 236 235 228 215 199 192
182 192 200 196 191 194 197 194 183 181 190 193 188 189 191 189 185 185 194 198 193 199 200 197 203 212 210 212 217 213 200 198 200 199 199 198 198 196 195 202 209 210 209 208 207 211 218 222 225 229 228 226 227 227 229 233 234 235 233 229 236 236 225 218 214 214 223 226 220 216 217 218 223 229 235 237 239 241 240 237 233 227 220 205 189 185
190 190 190 191 190 187 190 192 185 181 186 188 188 194 197 193 187 187 200 196 188 193 196 195 203 208 208 207 206 203 193 195 198 195 195 195 194 194 192 199 208 209 208 208 208 212 218 222 226 230 230 229 229 229 230 232 233 233 232 231 234 229 224 222 217 219 230 225 211 215 217 221 231 237 240 241 242 241 236 232 225 213 205 194 180 175
198 186 178 183 188 186 184 186 186 183 184 185 189 197 199 192 185 188 194 187 188 197 193 196 202 198 198 197 193 192 185 189 195 192 192 192 191 192 191 196 207 209 207 209 209 212 215 219 224 227 228 230 229 230 231 232 233 233 235 237 230 223 223 224 219 221 225 209 204 219 221 226 234 237 241 242 242 240 232 225 216 200 186 180 175 180
199 171 171 180 184 183 183 185 190 189 184 185 191 194 194 194 189 188 191 180 187 204 191 193 199 191 193 193 187 189 188 187 189 188 190 189 189 191 189 196 207 207 206 207 207 209 211 214 219 221 225 229 229 230 231 231 230 231 238 240 224 218 222 222 219 222 224 211 213 228 227 229 233 234 237 237 236 233 225 217 207 192 180 176 182 194
205 172 173 183 181 179 183 189 192 191 189 190 193 192 191 196 191 185 188 183 186 198 188 191 199 197 196 190 182 186 189 186 185 186 187 187 188 190 190 198 206 206 205 206 206 208 209 211 215 217 221 226 228 230 230 229 226 224 234 239 225 219 219 216 215 220 223 221 226 230 226 226 227 228 230 230 229 222 215 209 198 188 178 171 181 196
203 179 174 181 180 176 184 194 192 188 191 194 194 194 195 199 196 188 188 190 188 191 188 191 198 203 202 189 179 184 186 183 181 183 186 186 187 187 191 201 206 204 205 204 205 209 211 213 217 216 219 224 229 231 229 226 221 219 228 235 225 219 216 214 215 218 222 228 234 233 223 219 222 227 225 220 214 209 208 204 190 181 173 166 177 197
198 193 179 177 177 178 183 192 192 184 186 190 190 193 194 192 193 192 192 197 197 191 187 191 197 206 205 192 182 186 189 187 183 180 183 186 186 187 195 205 206 202 204 205 207 210 212 215 219 219 221 224 228 230 228 224 219 218 224 228 223 219 217 218 214 217 226 230 234 232 220 218 224 226 221 212 203 200 197 189 177 173 173 177 190 204
204 210 189 175 175 182 185 187 191 186 185 188 189 191 191 185 186 190 191 196 199 198 193 188 198 206 200 189 184 187 188 188 185 183 182 185 189 191 198 208 209 202 201 205 210 213 214 218 223 223 222 223 225 226 225 224 221 220 223 223 221 217 216 218 216 222 231 229 228 228 220 221 225 221 218 208 197 191 182 172 170 177 185 195 206 213
209 220 191 178 175 180 181 183 190 190 188 191 194 193 189 184 188 192 186 187 194 199 194 186 195 196 185 176 171 177 183 185 185 185 183 184 189 191 195 206 211 205 203 207 212 216 218 221 227 227 223 221 222 221 222 224 223 222 223 222 220 216 214 216 218 226 231 225 224 225 222 226 227 221 215 201 190 186 176 169 175 186 193 204 215 220
210 228 188 178 171 172 175 181 189 189 188 192 197 196 191 188 193 196 189 187 194 198 191 187 183 165 162 163 158 160 172 181 183 184 182 183 186 188 194 205 208 205 208 213 216 219 222 225 228 225 221 218 218 218 220 222 221 221 222 222 219 216 214 216 219 226 229 224 222 223 223 226 226 219 207 194 187 184 176 173 182 192 200 211 218 218
204 223 190 177 164 167 175 179 186 190 192 194 193 193 191 190 195 194 183 187 196 190 182 187 179 153 152 167 173 168 170 177 182 183 183 183 181 185 196 202 200 199 208 213 215 218 220 221 222 220 216 215 215 216 217 218 219 219 220 220 218 214 214 216 218 222 226 223 219 220 221 223 221 213 199 188 183 180 178 181 189 197 206 213 215 215
212 216 197 185 165 166 175 179 183 186 190 193 190 190 191 191 194 191 174 183 194 187 183 191 170 149 153 174 182 183 181 176 176 179 182 183 180 187 197 197 192 196 204 208 210 212 212 214 216 215 213 214 215 215 216 215 216 216 216 217 217 216 215 216 215 218 221 218 214 216 218 218 215 204 192 186 182 180 183 190 197 204 210 212 213 213
223 202 195 196 181 172 173 180 183 182 187 192 190 190 192 193 194 194 185 183 186 185 181 165 140 146 157 173 175 181 184 179 177 177 177 181 187 194 198 191 191 198 202 204 206 207 208 211 213 214 214 215 215 215 214 213 213 213 212 212 215 216 216 214 212 213 215 212 210 214 216 213 208 198 190 188 186 184 188 194 201 209 211 212 214 216
214 197 204 213 196 178 173 179 183 184 190 192 189 189 193 194 193 195 194 178 176 181 157 103 116 141 147 157 163 173 183 183 182 178 180 189 196 200 197 191 197 204 204 204 205 206 208 211 213 216 217 216 215 213 210 208 211 212 210 210 214 215 213 212 211 210 212 210 208 212 214 209 205 198 192 191 190 190 192 195 202 212 215 216 219 222
220 206 215 224 213 190 178 181 185 189 193 192 191 192 192 193 193 193 191 172 165 165 130 101 107 117 117 137 154 162 177 185 184 180 185 194 195 194 194 195 202 206 206 206 205 205 209 213 217 219 218 215 213 210 206 205 209 211 208 209 212 214 213 212 210 208 210 210 209 211 213 209 205 200 198 197 195 195 196 198 205 215 219 220 222 226
262 235 214 218 221 210 195 185 183 188 193 191 192 193 190 192 194 191 187 174 154 124 107 109 107 96 87 111 155 163 170 178 181 181 189 197 196 195 197 198 201 204 204 204 204 205 210 215 218 218 214 212 211 207 203 205 209 209 207 208 210 211 212 212 210 208 209 210 210 211 213 211 207 204 203 203 201 202 203 204 210 218 222 224 225 230
248 241 212 208 214 215 206 186 180 185 191 190 192 192 190 192 194 193 191 187 178 139 127 145 123 100 61 59 131 165 167 171 181 187 194 200 200 202 201 196 198 200 199 201 203 206 210 212 213 212 211 211 209 204 201 205 209 209 207 208 209 210 213 212 211 210 210 211 211 212 213 212 210 208 208 209 210 211 211 212 216 221 224 226 229 234
228 230 220 212 207 201 193 182 178 184 189 192 194 193 192 192 193 195 197 200 205 200 200 217 139 123 57 41 78 137 155 168 181 188 194 198 197 198 199 194 195 196 196 200 202 204 207 208 208 210 212 211 207 201 199 204 208 208 209 210 209 211 214 213 212 213 214 213 212 213 214 213 213 212 211 213 216 218 219 220 222 225 227 231 235 240
229 240 224 207 199 188 185 181 177 180 187 196 197 193 192 192 192 197 202 206 209 200 201 212 132 132 70 32 44 63 136 159 174 182 189 194 193 194 194 194 195 195 195 197 199 202 205 205 207 209 210 209 205 199 198 203 207 208 210 211 211 213 215 214 214 215 216 215 214 215 215 215 216 217 216 218 221 222 223 225 227 229 232 235 239 244
232 253 242 216 200 187 181 172 170 179 192 197 193 191 192 192 192 198 205 204 202 202 204 182 123 122 306 12 26 18 107 145 167 182 186 188 189 190 191 191 191 190 192 194 196 200 202 202 205 207 207 207 204 199 198 201 205 208 210 212 213 214 216 216 216 217 218 218 218 218 218 217 218 219 220 222 224 225 227 229 230 233 235 238 241 246
256 259 245 229 215 186 173 170 173 186 189 183 185 188 190 189 190 201 208 204 201 209 215 208 188 268 272 280 342 347 12 146 167 177 179 183 186 186 186 185 183 185 190 191 193 197 199 201 204 205 206 206 203 199 198 198 202 205 207 212 214 215 216 217 218 220 221 220 220 221 221 220 220 221 222 224 226 228 229 230 232 235 237 240 243 246
254 256 241 237 227 181 169 176 180 161 147 156 175 183 185 184 189 203 212 211 206 212 220 225 233 249 253 268 314 328 331 162 166 170 174 178 179 179 181 182 182 187 190 189 191 196 198 199 202 204 206 206 202 200 199 199 200 202 206 211 215 215 215 217 219 222 222 222 222 223 223 223 223 225 226 227 227 229 230 232 234 236 238 241 243 246
243 238 223 230 219 181 173 174 157 133 143 159 174 180 181 181 190 203 215 215 208 212 220 221 221 233 245 264 300 307 308 167 158 164 170 172 170 173 181 184 183 185 187 188 191 194 194 195 198 202 203 202 200 201 202 202 200 200 204 210 213 214 215 217 219 222 224 224 223 224 225 226 226 227 229 229 229 230 232 233 235 237 239 242 245 247
228 217 214 226 200 178 175 167 149 148 166 168 174 178 178 179 187 199 214 218 208 210 218 215 210 229 244 262 292 296 298 151 159 163 163 166 169 170 174 176 177 177 181 185 187 188 190 191 193 198 200 200 202 205 207 204 199 198 203 209 212 215 216 218 220 223 226 227 225 226 227 228 229 230 231 231 232 234 235 236 236 238 241 244 246 248
207 206 220 239 199 179 177 171 163 155 133 147 164 173 177 179 175 180 202 208 196 204 220 220 222 237 245 259 277 264 129 135 167 167 159 161 166 165 161 161 166 170 172 177 180 182 185 187 190 195 198 200 205 209 208 203 199 201 204 208 211 214 216 217 221 224 227 229 227 228 229 230 230 232 233 234 235 236 237 238 239 240 241 244 246 247
191 196 212 235 206 183 179 164 140 115 105 128 153 171 179 181 172 172 189 182 177 203 224 221 218 230 237 241 247 195 135 141 167 169 162 158 156 158 159 160 163 167 170 174 178 182 186 189 193 197 199 202 208 209 205 203 203 206 206 207 210 213 215 218 222 225 228 229 229 230 232 232 232 233 234 236 237 238 239 240 242 242 242 244 246 246
183 192 208 223 200 179 172 135 106 109 118 124 143 170 176 176 174 185 195 173 169 193 210 203 201 216 218 198 200 198 167 162 167 170 170 163 155 156 163 163 164 167 172 177 181 185 190 194 195 197 201 205 207 206 204 206 209 210 209 208 210 213 216 220 223 227 229 230 232 233 233 234 235 235 237 239 240 242 244 245 247 247 246 247 248 250
178 192 204 211 196 176 159 130 117 123 133 132 150 170 170 167 172 192 208 207 178 172 177 181 188 197 194 185 185 176 159 163 174 174 171 166 160 159 163 165 167 172 176 181 186 190 193 195 195 197 201 204 205 205 206 210 213 214 214 215 215 217 220 223 227 231 230 228 229 230 229 232 237 239 241 243 245 246 246 247 249 250 250 253 256 258
91 184 183 184 183 161 143 135 127 122 138 149 156 162 164 165 175 186 197 199 168 161 165 170 177 186 190 186 180 162 146 155 171 167 160 160 161 162 164 167 172 179 182 183 186 190 194 195 195 197 201 203 206 208 211 215 218 220 220 222 224 224 225 227 232 234 230 225 224 223 224 229 235 239 242 243 244 245 245 246 248 249 252 256 258 258
46 85 98 70 69 141 136 132 128 122 128 143 149 150 151 153 159 167 165 149 146 156 166 169 174 182 185 180 176 166 154 156 161 157 156 160 160 162 167 171 175 180 182 183 185 188 191 194 197 199 202 204 207 212 217 222 225 227 228 229 231 231 230 232 234 234 234 233 228 224 228 234 238 240 241 240 241 243 244 245 245 245 249 250 249 247
82 86 89 72 71 110 115 116 128 130 124 133 146 151 155 159 160 159 154 148 148 152 159 171 176 173 169 169 170 164 160 164 163 157 160 164 163 165 170 173 175 178 180 182 184 186 190 195 199 203 206 208 211 215 221 226 231 233 234 235 237 237 236 238 240 241 245 246 236 230 235 242 244 245 244 242 243 244 244 243 239 239 244 245 243 244
99 93 103 105 98 103 108 112 123 130 131 138 146 151 158 162 157 147 142 145 149 150 155 166 168 160 157 162 166 164 163 166 164 159 163 168 169 170 173 174 177 180 183 185 186 186 191 197 200 204 208 211 214 218 221 226 231 234 236 237 239 240 241 243 246 249 251 250 241 233 236 242 246 248 247 244 243 244 243 240 238 240 243 244 245 247
88 78 104 125 113 105 111 112 115 121 126 133 139 143 149 152 147 139 135 133 136 143 148 151 151 150 152 158 163 160 156 157 158 156 162 170 174 175 178 181 184 187 190 191 189 191 196 199 200 205 210 213 217 219 221 225 227 230 234 237 239 241 241 241 243 245 245 243 236 231 234 239 244 246 245 243 244 246 246 245 245 247 247 246 247 250
62 50 97 133 122 116 120 117 115 121 126 131 137 141 141 142 140 140 138 131 128 132 136 139 142 145 147 149 148 145 144 150 157 155 157 166 172 176 181 185 188 193 197 197 196 198 201 203 204 208 212 216 220 222 225 228 228 228 232 235 236 237 237 237 238 240 240 238 234 231 233 237 242 243 243 243 245 249 249 248 248 250 249 250 252 253
65 32 69 116 117 120 122 114 114 124 127 129 136 139 140 141 139 137 139 138 133 129 128 132 138 143 147 150 148 145 141 140 143 148 153 160 167 176 182 185 189 195 199 201 201 203 206 209 211 214 217 219 222 225 229 231 232 233 235 236 237 237 237 238 240 243 244 241 237 235 235 236 239 242 245 247 250 252 251 250 250 251 251 252 255 255
115 83 91 108 112 119 118 113 119 127 122 122 128 129 131 135 134 132 137 140 135 130 127 127 131 137 145 153 159 165 164 155 149 150 152 160 174 186 191 194 198 203 206 207 207 208 211 214 217 221 224 225 226 228 230 231 233 235 238 241 241 242 243 245 247 250 250 247 243 241 240 238 240 245 250 254 256 257 257 256 256 256 254 253 254 255
160 130 153 141 120 125 122 116 125 130 125 126 130 128 128 131 130 127 128 124 120 122 125 127 130 133 138 151 169 193 212 214 214 214 204 194 194 195 198 204 210 214 217 218 217 216 217 218 221 224 227 228 229 231 232 233 235 237 241 244 248 249 251 253 255 255 254 252 250 248 244 241 243 246 250 255 259 259 260 262 264 262 258 255 254 255
Height
3036 3038 3036 3034 3034 3037 3040 3044 3048 3053 3057 3058 3059 3061 3062 3064 3065 3068 3073 3074 3076 3079 3080 3082 3085 3087 3090 3093 3096 3099 3098 3098 3100 3103 3106 3109 3111 3113 3114 3116 3119 3121 3122 3123 3124 3127 3129 3131 3133 3134 3136 3137 3137 3138 3140 3141 3141 3142 3143 3144 3145 3146 3147 3148 3149 3151 3153 3154 3155 3156 3157 3157 3158 3158 3158 3158 3157 3157 3157 3158 3157 3156 3156 3157 3158 3158
3032 3031 3028 3029 3033 3037 3042 3046 3050 3053 3054 3055 3055 3057 3059 3060 3062 3065 3069 3072 3073 3075 3077 3080 3083 3084 3086 3089 3093 3095 3095 3095 3097 3099 3102 3105 3107 3109 3111 3113 3117 3118 3119 3119 3121 3124 3126 3129 3131 3132 3134 3134 3135 3136 3138 3139 3139 3139 3141 3143 3144 3145 3146 3148 3149 3151 3152 3153 3154 3155 3155 3156 3156 3156 3155 3154 3153 3154 3155 3155 3154 3154 3156 3158 3159 3160
3026 3024 3024 3029 3033 3037 3041 3044 3048 3050 3051 3052 3052 3053 3054 3056 3060 3062 3065 3069 3070 3072 3075 3077 3079 3080 3083 3086 3089 3091 3091 3092 3094 3097 3100 3102 3103 3105 3108 3111 3114 3115 3115 3116 3119 3121 3124 3127 3129 3130 3131 3132 3133 3135 3136 3137 3137 3137 3139 3141 3142 3144 3145 3147 3148 3149 3150 3151 3152 3153 3154 3154 3154 3154 3153 3152 3151 3152 3153 3154 3155 3157 3159 3160 3161 3163
3020 3019 3023 3028 3032 3035 3038 3041 3045 3047 3048 3049 3049 3049 3049 3052 3056 3056 3060 3065 3067 3069 3072 3075 3077 3078 3080 3083 3084 3086 3089 3090 3092 3094 3097 3099 3101 3102 3105 3107 3110 3111 3112 3114 3117 3119 3122 3125 3126 3128 3129 3130 3131 3133 3134 3135 3135 3136 3137 3139 3141 3143 3145 3146 3147 3148 3149 3149 3150 3151 3152 3152 3152 3153 3152 3150 3150 3152 3153 3154 3157 3158 3159 3160 3161 3163
3017 3018 3023 3027 3029 3031 3034 3037 3040 3043 3044 3045 3047 3046 3046 3049 3051 3053 3058 3063 3066 3068 3070 3072 3073 3073 3075 3077 3079 3083 3086 3087 3089 3091 3094 3096 3098 3100 3102 3105 3106 3108 3110 3112 3115 3117 3120 3122 3124 3126 3127 3128 3129 3130 3132 3133 3134 3134 3135 3138 3141 3143 3144 3145 3146 3147 3147 3147 3149 3149 3150 3150 3150 3150 3150 3149 3150 3152 3153 3155 3156 3157 3158 3160 3161 3162
3016 3019 3022 3024 3026 3028 3031 3033 3036 3039 3040 3043 3044 3044 3045 3047 3049 3053 3056 3060 3062 3063 3064 3068 3067 3066 3070 3073 3074 3078 3081 3083 3085 3087 3090 3092 3095 3097 3099 3102 3102 3104 3108 3110 3113 3116 3118 3120 3122 3123 3125 3126 3127 3129 3130 3131 3132 3132 3134 3138 3142 3142 3143 3144 3144 3145 3146 3146 3148 3149 3149 3149 3148 3147 3147 3148 3149 3151 3152 3154 3155 3157 3158 3159 3160 3160
3014 3016 3019 3021 3023 3026 3028 3029 3032 3036 3037 3039 3041 3043 3045 3046 3048 3051 3053 3055 3056 3056 3060 3064 3062 3061 3065 3068 3069 3073 3076 3078 3081 3083 3085 3088 3090 3093 3096 3099 3099 3101 3106 3108 3110 3113 3115 3117 3120 3121 3123 3124 3125 3127 3128 3129 3128 3130 3135 3139 3141 3141 3141 3143 3143 3144 3145 3145 3147 3148 3148 3148 3146 3145 3146 3147 3149 3150 3152 3154 3155 3156 3156 3157 3158 3159
3011 3013 3016 3018 3021 3022 3024 3025 3028 3033 3035 3036 3039 3042 3044 3045 3046 3048 3050 3052 3053 3056 3058 3060 3061 3060 3058 3060 3065 3069 3072 3074 3076 3078 3081 3084 3086 3090 3093 3095 3097 3100 3104 3106 3107 3109 3112 3115 3118 3119 3120 3122 3123 3124 3126 3126 3125 3129 3136 3137 3138 3140 3141 3142 3143 3143 3143 3144 3145 3146 3146 3146 3145 3144 3145 3147 3149 3151 3152 3153 3155 3155 3155 3156 3157 3157
3009 3011 3012 3015 3017 3019 3021 3023 3027 3032 3033 3034 3038 3042 3044 3044 3045 3046 3048 3049 3052 3055 3053 3055 3060 3059 3053 3055 3060 3064 3066 3068 3070 3073 3077 3080 3083 3086 3089 3092 3095 3098 3101 3103 3104 3107 3110 3113 3116 3117 3118 3120 3121 3122 3123 3124 3125 3131 3135 3134 3136 3140 3141 3142 3142 3141 3142 3142 3142 3143 3143 3144 3145 3145 3145 3147 3149 3150 3151 3153 3154 3154 3155 3155 3156 3156
3009 3010 3012 3013 3014 3017 3020 3023 3026 3029 3032 3035 3038 3042 3044 3043 3044 3046 3046 3047 3051 3051 3047 3049 3055 3055 3052 3052 3054 3057 3059 3061 3066 3070 3074 3077 3080 3083 3086 3089 3093 3096 3098 3100 3103 3105 3109 3111 3114 3115 3116 3117 3118 3119 3121 3123 3126 3130 3132 3133 3137 3139 3139 3140 3140 3140 3140 3140 3140 3141 3141 3142 3144 3146 3147 3147 3148 3149 3150 3151 3153 3153 3154 3154 3154 3155
3008 3010 3011 3012 3013 3017 3020 3023 3025 3028 3032 3035 3037 3040 3043 3043 3043 3045 3044 3046 3048 3045 3043 3045 3050 3052 3050 3048 3049 3050 3053 3058 3063 3067 3070 3074 3077 3079 3083 3086 3090 3093 3095 3098 3100 3103 3106 3109 3111 3113 3114 3115 3116 3117 3120 3122 3123 3126 3130 3134 3137 3137 3137 3138 3138 3138 3138 3138 3139 3138 3138 3141 3144 3146 3147 3147 3147 3148 3149 3150 3151 3152 3152 3153 3153 3154
3007 3008 3009 3010 3013 3016 3019 3022 3024 3028 3031 3031 3033 3037 3040 3041 3042 3043 3043 3045 3042 3037 3039 3043 3047 3050 3047 3043 3045 3048 3052 3057 3061 3063 3066 3070 3073 3076 3080 3084 3087 3090 3092 3095 3098 3100 3103 3106 3108 3110 3111 3112 3113 3115 3119 3120 3121 3124 3129 3134 3136 3136 3135 3136 3136 3136 3136 3136 3136 3135 3137 3142 3144 3145 3146 3146 3146 3147 3148 3149 3150 3150 3151 3151 3152 3153
3005 3006 3007 3009 3011 3013 3016 3018 3021 3026 3027 3027 3031 3033 3034 3037 3040 3039 3038 3037 3034 3032 3037 3041 3043 3045 3043 3043 3045 3046 3050 3054 3057 3061 3064 3067 3070 3074 3077 3081 3084 3087 3089 3093 3096 3098 3101 3103 3106 3108 3108 3109 3111 3114 3117 3117 3119 3123 3128 3132 3135 3133 3132 3133 3133 3134 3134 3134 3133 3135 3139 3142 3143 3143 3144 3145 3145 3145 3146 3147 3148 3148 3149 3150 3151 3153
3003 3005 3007 3008 3009 3010 3013 3014 3014 3018 3020 3022 3025 3027 3026 3027 3030 3033 3031 3030 3030 3032 3035 3039 3040 3039 3039 3042 3044 3044 3047 3051 3055 3059 3062 3064 3068 3071 3075 3078 3081 3085 3087 3091 3094 3095 3098 3101 3104 3106 3106 3107 3109 3113 3115 3116 3118 3122 3125 3130 3132 3131 3131 3131 3131 3132 3132 3132 3135 3138 3140 3140 3141 3142 3143 3143 3144 3144 3144 3144 3145 3146 3147 3148 3150 3152
3000 3002 3003 3005 3007 3008 3010 3012 3013 3016 3018 3020 3022 3024 3022 3019 3021 3025 3025 3024 3027 3030 3033 3036 3036 3035 3037 3039 3041 3043 3046 3049 3053 3056 3060 3063 3066 3070 3074 3076 3078 3082 3085 3088 3091 3093 3096 3100 3102 3103 3104 3105 3108 3112 3114 3114 3117 3120 3123 3128 3130 3128 3129 3129 3130 3130 3130 3133 3136 3138 3138 3139 3140 3141 3141 3142 3142 3142 3142 3143 3143 3144 3145 3147 3148 3150
2997 2998 2999 3003 3006 3007 3008 3011 3014 3016 3018 3020 3022 3022 3019 3018 3020 3023 3023 3024 3027 3028 3030 3032 3032 3034 3036 3036 3039 3043 3045 3048 3052 3054 3058 3061 3064 3069 3072 3074 3076 3080 3083 3086 3088 3091 3095 3098 3100 3101 3102 3104 3107 3110 3112 3113 3116 3118 3121 3126 3128 3127 3127 3128 3128 3128 3130 3133 3135 3136 3137 3138 3139 3139 3140 3140 3140 3140 3140 3141 3142 3143 3144 3145 3147 3149
2995 2996 2998 3002 3005 3006 3007 3010 3013 3014 3014 3017 3018 3017 3016 3018 3021 3023 3023 3025 3028 3028 3028 3029 3030 3032 3034 3035 3038 3041 3043 3047 3050 3052 3056 3059 3062 3066 3069 3071 3073 3077 3081 3083 3086 3090 3094 3096 3098 3099 3100 3103 3106 3108 3109 3112 3115 3117 3120 3124 3125 3125 3126 3126 3126 3128 3129 3132 3133 3133 3135 3136 3136 3137 3138 3138 3138 3138 3139 3140 3141 3142 3143 3145 3147 3149
2994 2996 2998 3000 3003 3005 3007 3010 3013 3014 3014 3014 3014 3014 3016 3018 3019 3021 3022 3024 3027 3027 3026 3027 3027 3028 3031 3033 3036 3039 3041 3044 3047 3050 3054 3057 3060 3064 3066 3069 3071 3075 3078 3081 3085 3089 3091 3094 3096 3097 3099 3101 3104 3106 3108 3112 3114 3116 3118 3121 3123 3123 3123 3124 3125 3126 3127 3129 3131 3131 3133 3134 3135 3135 3136 3136 3137 3137 3137 3138 3139 3141 3143 3145 3147 3149
2994 2995 2998 2999 3001 3004 3007 3009 3011 3013 3014 3015 3014 3014 3014 3014 3013 3016 3019 3021 3023 3024 3024 3025 3027 3028 3028 3030 3033 3037 3039 3042 3045 3048 3052 3055 3058 3062 3064 3066 3069 3073 3076 3079 3083 3086 3089 3092 3094 3096 3098 3100 3102 3104 3107 3111 3114 3115 3116 3118 3120 3121 3121 3122 3124 3124 3126 3127 3128 3129 3131 3133 3133 3133 3134 3134 3135 3135 3136 3137 3138 3140 3142 3144 3146 3148
2994 2994 2996 2998 3000 3003 3006 3007 3007 3009 3011 3014 3016 3015 3014 3014 3012 3013 3016 3019 3020 3021 3023 3026 3027 3026 3026 3028 3031 3035 3038 3041 3044 3046 3050 3053 3056 3060 3061 3063 3066 3071 3075 3078 3080 3083 3087 3090 3092 3094 3096 3098 3100 3102 3105 3110 3113 3114 3115 3116 3117 3118 3119 3121 3123 3124 3124 3125 3126 3128 3130 3131 3131 3132 3132 3133 3133 3134 3135 3136 3137 3139 3142 3143 3145 3147
2995 2994 2994 2997 3000 3001 3003 3004 3004 3005 3007 3010 3012 3012 3012 3014 3015 3014 3016 3018 3018 3018 3020 3024 3026 3025 3026 3028 3030 3033 3037 3040 3042 3045 3049 3052 3055 3058 3059 3061 3064 3068 3072 3076 3079 3082 3085 3088 3090 3093 3095 3097 3099 3100 3103 3107 3111 3113 3114 3115 3116 3117 3119 3120 3122 3122 3123 3124 3125 3126 3128 3129 3130 3130 3131 3131 3132 3133 3134 3135 3137 3139 3142 3143 3145 3147
2994 2995 2994 2995 2997 2999 3000 3002 3005 3006 3007 3007 3009 3010 3010 3013 3014 3013 3014 3016 3016 3017 3018 3020 3023 3024 3025 3028 3029 3032 3035 3038 3041 3044 3047 3050 3053 3056 3058 3060 3063 3066 3070 3074 3077 3080 3084 3086 3088 3091 3093 3095 3097 3098 3100 3104 3108 3111 3112 3114 3115 3116 3118 3119 3120 3121 3121 3122 3123 3124 3126 3127 3128 3129 3129 3130 3131 3132 3133 3134 3137 3139 3141 3143 3145 3146
2993 2994 2994 2994 2995 2998 3000 3003 3005 3007 3008 3009 3009 3010 3011 3012 3013 3011 3011 3013 3014 3015 3015 3018 3021 3021 3023 3026 3029 3031 3033 3037 3040 3042 3045 3048 3051 3054 3057 3059 3062 3065 3069 3073 3076 3078 3081 3084 3086 3089 3092 3094 3096 3097 3099 3101 3106 3108 3110 3112 3113 3115 3117 3117 3118 3119 3119 3121 3122 3123 3124 3125 3126 3127 3128 3129 3130 3131 3133 3134 3136 3138 3140 3142 3144 3145
2993 2993 2993 2994 2996 2998 3001 3004 3006 3007 3009 3009 3009 3009 3010 3012 3012 3011 3011 3013 3012 3011 3011 3015 3019 3020 3022 3026 3028 3030 3033 3036 3039 3041 3044 3047 3050 3053 3055 3057 3061 3065 3068 3071 3074 3076 3079 3082 3084 3086 3090 3092 3094 3096 3097 3099 3103 3106 3108 3109 3111 3113 3115 3115 3116 3117 3118 3119 3121 3122 3123 3124 3125 3125 3126 3128 3129 3131 3132 3134 3135 3138 3139 3141 3142 3144
2994 2993 2993 2994 2995 2998 3001 3002 3004 3005 3007 3008 3009 3009 3010 3012 3013 3011 3012 3014 3013 3011 3011 3013 3016 3019 3023 3026 3029 3031 3033 3036 3038 3040 3043 3046 3049 3051 3052 3055 3060 3063 3066 3069 3071 3073 3076 3079 3081 3084 3087 3091 3093 3094 3095 3098 3101 3103 3105 3107 3108 3111 3112 3113 3115 3115 3116 3118 3119 3120 3121 3122 3123 3124 3125 3127 3128 3130 3132 3133 3135 3137 3139 3140 3141 3142
2994 2994 2993 2993 2993 2995 2997 2998 2998 3000 3004 3006 3008 3009 3010 3012 3012 3011 3012 3014 3013 3012 3013 3012 3014 3019 3023 3025 3027 3030 3033 3035 3037 3039 3043 3045 3047 3049 3050 3053 3058 3062 3064 3066 3069 3071 3074 3076 3079 3082 3085 3089 3091 3092 3094 3096 3099 3101 3103 3104 3106 3108 3110 3111 3113 3114 3115 3116 3118 3119 3120 3121 3122 3123 3124 3126 3127 3129 3130 3132 3134 3136 3137 3139 3140 3141
2995 2994 2993 2992 2991 2991 2994 2996 2998 3000 3002 3003 3006 3009 3010 3011 3012 3013 3014 3014 3014 3014 3014 3014 3015 3019 3023 3025 3027 3029 3031 3034 3036 3038 3041 3043 3044 3046 3049 3053 3057 3060 3062 3064 3067 3069 3072 3074 3077 3080 3083 3086 3089 3090 3092 3094 3097 3099 3101 3103 3104 3106 3108 3110 3112 3113 3114 3115 3117 3118 3118 3119 3121 3122 3123 3124 3126 3128 3129 3131 3133 3134 3136 3138 3139 3139
2995 2994 2993 2993 2992 2992 2993 2996 2998 3000 3001 3003 3005 3009 3011 3011 3012 3014 3014 3014 3014 3013 3014 3017 3019 3020 3023 3025 3026 3028 3030 3033 3035 3037 3039 3040 3042 3045 3049 3052 3055 3058 3060 3063 3065 3067 3070 3072 3075 3078 3081 3084 3086 3088 3090 3092 3095 3097 3099 3101 3102 3104 3106 3108 3110 3112 3113 3114 3115 3116 3117 3118 3119 3121 3122 3123 3125 3126 3128 3130 3131 3133 3135 3136 3137 3138
2994 2994 2994 2994 2994 2993 2993 2995 2998 3000 3002 3003 3006 3009 3011 3012 3013 3014 3014 3014 3014 3014 3015 3019 3022 3022 3024 3026 3027 3028 3030 3032 3034 3036 3037 3039 3042 3045 3048 3050 3053 3056 3059 3061 3063 3066 3068 3070 3073 3076 3079 3081 3084 3086 3088 3090 3092 3095 3097 3099 3101 3103 3105 3107 3109 3110 3111 3112 3114 3115 3116 3117 3118 3119 3121 3122 3124 3125 3127 3129 3130 3132 3133 3134 3135 3136
2993 2993 2994 2995 2994 2993 2992 2993 2996 3000 3001 3003 3006 3008 3011 3013 3014 3015 3015 3014 3015 3017 3019 3021 3023 3024 3025 3026 3026 3027 3028 3031 3033 3035 3036 3039 3041 3044 3046 3048 3051 3054 3057 3059 3061 3064 3066 3068 3071 3074 3076 3079 3082 3084 3086 3088 3090 3092 3095 3097 3099 3101 3103 3105 3107 3108 3110 3111 3112 3114 3115 3116 3117 3118 3120 3121 3123 3124 3126 3127 3129 3130 3131 3133 3134 3135
2994 2993 2994 2995 2995 2993 2992 2992 2995 2998 3000 3003 3005 3007 3010 3013 3014 3015 3016 3016 3017 3020 3022 3022 3023 3024 3025 3025 3025 3025 3026 3029 3031 3033 3035 3038 3041 3043 3044 3046 3049 3052 3054 3057 3059 3061 3064 3066 3068 3071 3074 3077 3080 3082 3085 3086 3088 3090 3093 3095 3098 3100 3102 3103 3105 3107 3108 3110 3111 3112 3113 3115 3116 3117 3118 3120 3121 3123 3124 3126 3127 3128 3130 3131 3132 3133
2994 2994 2995 2995 2995 2994 2993 2993 2995 2998 3000 3002 3004 3006 3008 3011 3013 3014 3016 3018 3020 3021 3022 3022 3023 3024 3025 3024 3024 3025 3026 3028 3030 3032 3035 3037 3039 3041 3043 3045 3047 3050 3052 3054 3057 3059 3061 3064 3066 3069 3073 3076 3079 3081 3083 3084 3086 3088 3091 3093 3096 3099 3100 3102 3103 3105 3106 3108 3109 3110 3112 3113 3114 3115 3117 3118 3120 3121 3123 3124 3125 3126 3128 3129 3130 3130
2994 2994 2994 2995 2995 2994 2994 2994 2996 2998 3000 3000 3001 3003 3006 3009 3013 3015 3016 3019 3021 3022 3022 3022 3023 3024 3025 3025 3025 3025 3025 3027 3029 3031 3033 3035 3037 3039 3041 3043 3045 3047 3050 3052 3055 3057 3060 3062 3065 3069 3072 3074 3077 3080 3082 3083 3085 3087 3089 3092 3095 3097 3098 3100 3101 3103 3104 3106 3107 3108 3110 3111 3112 3114 3115 3116 3118 3119 3121 3122 3123 3124 3126 3127 3127 3128
2993 2993 2994 2994 2994 2993 2993 2993 2995 2997 2997 2997 2999 3003 3006 3009 3013 3014 3014 3018 3020 3021 3022 3023 3023 3024 3025 3025 3025 3025 3025 3026 3028 3029 3031 3033 3035 3037 3039 3042 3044 3046 3048 3050 3053 3056 3059 3062 3064 3067 3070 3073 3076 3079 3081 3082 3084 3086 3088 3090 3092 3094 3096 3098 3100 3101 3102 3104 3105 3107 3108 3109 3111 3112 3113 3115 3116 3117 3119 3120 3121 3122 3123 3124 3125 3126
2993 2993 2993 2993 2993 2992 2992 2993 2995 2995 2995 2996 3000 3004 3007 3010 3013 3012 3014 3017 3020 3021 3022 3023 3024 3025 3024 3024 3024 3024 3025 3026 3026 3027 3030 3032 3034 3036 3038 3040 3042 3044 3046 3049 3053 3055 3058 3061 3063 3066 3069 3071 3074 3077 3079 3081 3083 3084 3086 3088 3090 3092 3095 3096 3098 3099 3100 3102 3103 3105 3106 3108 3109 3111 3112 3113 3114 3116 3117 3118 3119 3120 3121 3122 3122 3123
2993 2993 2993 2993 2992 2991 2992 2993 2994 2994 2995 2998 3001 3003 3006 3010 3011 3011 3013 3017 3019 3020 3022 3023 3024 3025 3024 3024 3024 3024 3024 3025 3025 3026 3029 3030 3032 3035 3036 3038 3041 3043 3046 3049 3052 3054 3057 3060 3062 3065 3067 3069 3072 3075 3078 3079 3081 3083 3085 3086 3088 3091 3093 3094 3096 3097 3099 3100 3102 3103 3105 3106 3108 3109 3110 3112 3113 3114 3115 3116 3117 3118 3119 3119 3120 3120
2992 2993 2993 2992 2990 2990 2990 2991 2993 2995 2997 2999 3001 3002 3005 3008 3009 3010 3012 3015 3018 3020 3021 3022 3023 3024 3024 3024 3024 3024 3023 3024 3026 3027 3029 3030 3032 3034 3036 3037 3039 3042 3045 3048 3051 3053 3056 3059 3061 3063 3066 3068 3071 3074 3076 3078 3080 3082 3084 3085 3087 3089 3090 3092 3094 3095 3097 3099 3101 3102 3104 3105 3106 3108 3109 3110 3111 3112 3113 3114 3115 3116 3116 3116 3117 3118
2991 2991 2992 2992 2990 2989 2989 2989 2992 2995 2996 2998 3001 3002 3004 3007 3009 3011 3013 3015 3017 3018 3019 3020 3022 3023 3023 3024 3024 3024 3023 3025 3026 3028 3029 3030 3032 3034 3035 3037 3039 3041 3044 3047 3050 3053 3056 3058 3060 3062 3064 3067 3070 3071 3073 3076 3079 3081 3082 3084 3086 3088 3089 3091 3093 3094 3096 3097 3099 3101 3102 3103 3105 3106 3107 3108 3109 3110 3111 3112 3112 3113 3113 3114 3114 3114
2990 2990 2991 2991 2989 2989 2988 2988 2990 2993 2995 2998 3000 3002 3004 3006 3009 3012 3014 3014 3015 3016 3017 3019 3022 3023 3023 3024 3024 3023 3024 3026 3027 3028 3029 3031 3032 3033 3035 3037 3039 3041 3044 3047 3050 3052 3055 3057 3059 3061 3063 3066 3067 3069 3072 3075 3077 3079 3081 3083 3085 3087 3088 3090 3092 3093 3094 3096 3097 3099 3100 3101 3102 3104 3105 3106 3107 3108 3109 3109 3109 3110 3110 3110 3111 3111
2990 2991 2991 2990 2988 2987 2987 2987 2989 2993 2997 2999 3000 3001 3003 3006 3009 3012 3013 3012 3013 3015 3016 3019 3022 3023 3024 3025 3024 3023 3024 3026 3027 3028 3030 3032 3033 3034 3036 3038 3039 3042 3045 3047 3050 3052 3054 3056 3058 3060 3062 3064 3066 3068 3071 3073 3076 3078 3080 3083 3084 3086 3087 3089 3090 3091 3092 3094 3095 3096 3097 3099 3100 3102 3103 3104 3104 3105 3105 3106 3106 3106 3106 3107 3107 3106
2990 2991 2990 2989 2986 2985 2986 2988 2991 2994 2997 2998 3000 3001 3003 3007 3010 3011 3010 3009 3011 3014 3017 3019 3022 3023 3023 3024 3024 3024 3024 3025 3026 3027 3029 3031 3033 3035 3037 3038 3040 3042 3045 3047 3050 3052 3054 3056 3058 3060 3061 3063 3065 3068 3070 3072 3074 3076 3079 3081 3082 3084 3086 3087 3088 3089 3090 3091 3092 3093 3095 3097 3098 3099 3100 3101 3102 3102 3102 3103 3103 3103 3103 3103 3103 3102
2989 2989 2988 2988 2986 2985 2986 2989 2993 2996 2997 2997 3000 3002 3004 3008 3009 3009 3009 3009 3011 3014 3017 3019 3021 3022 3023 3024 3024 3024 3025 3025 3026 3028 3030 3032 3034 3035 3037 3039 3041 3042 3045 3047 3049 3051 3053 3055 3058 3059 3061 3063 3065 3067 3069 3071 3073 3075 3077 3079 3080 3082 3084 3085 3086 3087 3087 3088 3089 3090 3093 3095 3096 3096 3097 3098 3099 3099 3099 3099 3100 3100 3101 3101 3100 3100
2988 2988 2987 2987 2987 2986 2988 2991 2993 2996 2998 2998 3000 3003 3006 3008 3008 3008 3009 3010 3011 3013 3016 3018 3020 3022 3022 3023 3025 3025 3026 3026 3027 3029 3031 3033 3034 3036 3038 3040 3041 3043 3045 3048 3050 3052 3054 3056 3057 3059 3061 3062 3064 3066 3068 3070 3072 3074 3075 3077 3079 3081 3082 3083 3084 3085 3085 3086 3088 3089 3091 3092 3093 3094 3094 3095 3096 3096 3096 3096 3097 3097 3098 3098 3098 3098
2989 2988 2988 2989 2988 2988 2990 2992 2995 2997 2998 2999 3001 3004 3006 3007 3008 3009 3010 3011 3012 3013 3016 3018 3020 3021 3022 3024 3025 3026 3027 3028 3028 3030 3031 3033 3035 3037 3038 3040 3042 3044 3046 3048 3050 3052 3053 3055 3057 3058 3060 3062 3064 3066 3067 3069 3071 3072 3074 3075 3077 3079 3080 3081 3082 3082 3084 3085 3087 3088 3089 3090 3090 3091 3091 3092 3092 3093 3093 3094 3094 3095 3095 3095 3096 3095
2991 2991 2991 2992 2991 2991 2992 2995 2996 2998 2999 3000 3002 3004 3006 3007 3008 3009 3011 3011 3012 3014 3016 3018 3019 3021 3022 3024 3025 3026 3027 3028 3029 3030 3032 3033 3035 3037 3039 3040 3042 3044 3045 3047 3049 3051 3053 3054 3056 3058 3059 3061 3063 3065 3066 3068 3069 3071 3072 3074 3075 3077 3078 3079 3080 3080 3081 3083 3084 3085 3086 3087 3087 3088 3089 3089 3090 3090 3091 3091 3092 3092 3093 3093 3093 3093
2993 2993 2993 2993 2994 2994 2995 2997 2998 2999 3001 3002 3003 3005 3007 3008 3008 3009 3011 3012 3013 3015 3017 3018 3019 3021 3023 3024 3025 3026 3027 3028 3029 3031 3032 3034 3035 3037 3039 3041 3042 3043 3045 3047 3049 3050 3052 3054 3055 3057 3059 3060 3062 3063 3065 3067 3068 3069 3070 3072 3073 3075 3076 3077 3078 3078 3078 3079 3081 3082 3082 3083 3084 3085 3086 3087 3087 3088 3089 3089 3090 3090 3090 3091 3091 3091
2994 2994 2994 2994 2995 2996 2997 2998 3000 3001 3003 3004 3005 3006 3008 3009 3009 3010 3012 3013 3014 3016 3017 3019 3020 3022 3023 3024 3025 3026 3028 3028 3029 3031 3032 3034 3036 3037 3039 3040 3042 3043 3045 3047 3048 3050 3051 3053 3055 3056 3058 3059 3061 3062 3064 3065 3066 3068 3069 3070 3071 3073 3074 3075 3075 3075 3076 3077 3077 3078 3079 3080 3081 3082 3083 3084 3085 3086 3086 3087 3087 3088 3088 3089 3089 3089
2997 2996 2996 2995 2996 2997 2998 3000 3002 3003 3004 3005 3006 3007 3008 3009 3010 3011 3013 3014 3015 3017 3018 3020 3021 3022 3024 3024 3025 3026 3028 3028 3029 3030 3032 3034 3036 3037 3039 3040 3042 3043 3045 3047 3049 3050 3051 3053 3054 3056 3057 3059 3060 3061 3062 3064 3065 3066 3067 3068 3070 3070 3071 3072 3073 3073 3074 3074 3075 3075 3077 3077 3078 3080 3081 3082 3083 3083 3084 3085 3085 3085 3086 3087 3087 3087
2998 2998 2998 2997 2997 2998 2999 3001 3003 3004 3004 3005 3006 3007 3008 3009 3011 3012 3013 3014 3015 3017 3019 3020 3021 3022 3023 3025 3025 3026 3027 3028 3029 3030 3032 3034 3035 3037 3039 3040 3042 3044 3045 3047 3048 3050 3051 3052 3054 3055 3057 3058 3059 3060 3061 3062 3063 3065 3065 3066 3068 3069 3069 3070 3070 3071 3071 3072 3072 3073 3074 3075 3077 3078 3078 3079 3080 3081 3081 3082 3082 3082 3083 3084 3084 3084
3000 3000 3000 3000 3000 3001 3001 3002 3003 3004 3005 3006 3007 3008 3009 3010 3011 3012 3013 3015 3016 3017 3018 3019 3021 3022 3023 3024 3025 3027 3028 3029 3030 3031 3033 3034 3036 3037 3039 3041 3043 3044 3046 3047 3048 3049 3051 3052 3053 3054 3056 3057 3058 3059 3060 3061 3062 3063 3064 3065 3066 3067 3067 3068 3069 3069 3069 3070 3070 3071 3072 3074 3075 3076 3076 3077 3077 3078 3078 3079 3080 3080 3081 3081 3081 3081
3001 3002 3002 3002 3003 3003 3003 3004 3005 3006 3007 3008 3009 3009 3010 3011 3012 3013 3014 3015 3017 3018 3019 3020 3021 3022 3023 3024 3025 3027 3028 3029 3030 3032 3033 3034 3036 3037 3039 3041 3043 3044 3046 3047 3048 3049 3050 3051 3052 3053 3054 3055 3056 3057 3058 3059 3060 3061 3062 3063 3064 3065 3066 3066 3067 3067 3068 3068 3069 3070 3071 3072 3073 3074 3074 3075 3075 3075 3076 3077 3077 3078 3078 3078 3078 3079